Theta_e
319 316 320 321 320 321 321 321 321 320 320 319 318 317 317 317 318 321 323 321 320 316 317 322 323 321 321 321 323 322 320 322 323 324 326 325 325 325 324 324 324 325 332 334 333
320 318 315 319 320 320 320 320 320 320 320 319 318 317 317 316 318 323 321 319 316 316 323 320 321 321 321 322 323 321 321 323 323 324 325 324 323 323 323 324 324 324 327 331 331
318 319 316 314 318 320 320 320 320 320 319 318 317 317 316 316 323 324 319 317 316 317 322 320 320 320 321 323 323 323 322 323 323 323 323 323 323 323 323 322 323 323 325 325 325
320 318 319 315 314 318 319 319 320 319 319 318 317 316 316 318 326 322 317 317 317 318 320 320 320 321 320 321 322 322 322 322 322 323 322 322 323 322 322 322 322 323 325 325 326
321 320 318 318 314 315 318 319 319 319 318 317 316 316 318 323 323 318 316 316 317 319 319 321 321 320 320 321 322 323 322 322 323 322 323 322 322 322 322 322 322 324 325 326 327
323 321 319 319 316 313 316 318 319 318 318 317 316 315 319 324 322 321 319 319 318 319 321 321 322 323 324 323 323 324 325 324 323 323 323 323 322 322 323 323 323 325 327 327 327
320 322 321 319 319 314 314 318 318 318 317 316 316 317 320 322 321 321 319 318 319 321 322 323 323 323 324 323 323 324 324 324 324 323 323 323 323 323 323 324 326 327 327 327 327
317 320 322 320 319 317 313 316 318 318 317 316 315 318 322 320 320 321 320 318 320 319 319 321 322 323 324 324 324 324 324 325 325 324 324 323 325 326 325 325 327 327 328 328 327
315 316 321 322 320 319 314 316 318 317 317 316 317 319 321 320 320 320 321 320 318 319 318 317 320 322 323 323 325 325 326 326 326 325 325 325 327 327 326 328 328 328 328 328 328
313 315 316 322 321 319 316 317 318 317 316 317 318 322 321 321 320 320 319 319 319 319 319 318 320 323 324 326 324 325 328 327 325 326 326 327 327 327 328 328 329 328 329 328 328
311 313 315 318 321 320 317 318 319 319 317 319 319 320 318 320 318 318 318 318 318 319 320 319 320 322 323 325 325 325 326 328 328 326 327 329 328 328 329 329 329 329 328 328 329
307 312 314 315 319 320 317 317 316 317 319 318 318 319 319 318 319 319 319 319 319 320 321 321 323 321 323 325 326 327 328 329 327 326 327 328 329 328 328 329 329 329 329 329 329
307 310 313 315 316 319 318 317 315 316 320 321 319 320 319 318 319 319 321 319 319 322 322 321 323 323 324 325 328 328 329 329 328 328 329 329 330 329 329 328 328 328 328 328 329
306 309 312 315 316 317 318 317 316 316 321 318 322 320 320 319 318 318 322 320 322 324 322 321 321 324 326 326 328 330 327 328 329 330 331 329 333 330 330 329 328 328 328 329 332
307 306 310 315 315 318 318 318 318 319 324 316 320 319 318 319 316 317 322 324 325 325 324 324 324 326 329 328 327 329 329 330 330 331 332 330 331 330 329 329 328 328 329 330 332
307 305 307 312 314 318 318 318 317 319 322 319 318 319 319 319 317 316 320 324 324 325 325 326 326 326 328 327 327 328 329 329 330 331 336 331 332 331 330 330 328 329 330 330 331
306 306 306 312 315 314 318 317 317 320 317 319 319 319 320 320 319 317 319 325 327 326 328 325 326 326 327 328 327 328 331 335 334 335 335 329 330 331 328 328 329 329 330 329 330
303 305 307 312 313 314 316 319 320 318 318 320 319 318 319 319 320 319 320 325 326 324 324 327 328 327 326 327 329 330 331 335 333 336 332 328 330 328 329 327 328 328 329 328 330
303 305 308 310 314 314 317 317 318 320 317 321 321 321 320 318 320 319 319 323 325 324 323 326 325 324 325 325 328 330 332 329 333 333 337 331 329 328 329 328 328 327 327 327 329
304 306 308 309 313 316 320 315 318 317 316 318 327 324 324 320 319 321 318 321 324 324 322 323 326 324 325 326 326 329 329 334 334 338 337 331 330 330 330 327 326 326 327 326 327
305 306 306 306 309 316 317 314 316 317 317 317 327 327 326 323 321 321 318 319 323 324 322 323 327 328 328 328 328 328 329 331 332 333 334 333 331 331 330 327 326 325 325 325 325
307 306 305 305 306 312 311 311 315 317 318 320 322 326 326 326 325 325 322 321 322 323 326 324 327 330 329 327 327 328 329 331 334 334 333 334 334 330 330 328 327 324 324 324 324
306 307 307 305 309 309 308 314 317 318 319 322 322 325 326 327 329 326 327 322 325 325 327 325 329 335 333 331 328 328 328 328 330 330 334 337 332 328 328 328 327 326 324 323 323
305 306 306 308 306 309 310 314 318 317 319 321 322 324 326 329 328 329 328 327 327 327 326 325 330 334 337 332 329 330 328 327 329 332 332 332 332 330 327 327 327 326 325 323 323
305 306 307 307 305 306 310 313 317 319 319 321 324 325 326 328 329 330 329 328 328 326 327 327 331 331 331 328 327 328 327 328 329 330 332 330 330 329 329 327 326 326 325 324 322
302 305 307 308 307 307 306 313 317 319 320 322 323 324 325 327 327 328 327 330 330 327 328 328 331 331 332 329 326 327 326 327 328 328 328 329 329 327 327 326 327 325 325 325 323
304 304 306 308 308 309 308 309 316 318 319 321 322 322 324 324 325 325 325 325 326 329 328 328 330 331 335 330 330 333 330 326 326 326 328 329 329 327 326 326 325 325 325 325 324
Wind_Speed
34 34 31 29 27 24 21 18 16 14 12 11 12 14 16 19 23 18 16 1 1 4 8 14 15 12 9 12 7 10 5 11 12 13 10 6 3 8 1 3 2 2 6 9 6
36 35 34 32 28 27 24 21 17 15 13 12 12 13 15 19 22 21 7 5 4 4 9 9 10 6 9 9 5 8 10 7 10 12 12 8 2 5 3 6 3 3 10 10 4
38 37 36 35 33 29 26 23 19 17 14 12 11 12 14 17 12 5 8 5 5 3 10 10 11 12 14 13 10 10 14 7 8 7 7 6 2 5 4 7 5 5 6 4 4
41 38 37 36 34 31 28 24 21 18 14 12 11 11 13 10 5 5 5 4 3 4 10 9 7 10 11 12 12 5 14 3 5 2 4 3 5 8 7 8 6 3 2 4 7
43 41 38 37 35 33 30 26 22 18 15 12 10 9 7 9 15 4 4 2 4 8 9 7 8 10 12 8 7 11 12 4 5 4 7 8 10 10 10 9 4 4 2 7 4
45 44 40 37 36 33 31 27 23 19 15 12 9 7 6 14 6 4 3 6 9 7 8 8 6 8 9 7 8 6 7 8 9 10 11 11 11 10 9 9 4 8 6 4 4
25 45 42 39 36 33 31 28 24 19 15 12 9 7 13 17 3 4 5 8 5 8 7 1 6 8 5 7 5 7 10 12 15 14 11 2 12 20 13 9 9 10 10 6 6
24 34 44 40 37 33 31 27 23 18 14 11 8 8 9 11 24 27 10 8 6 4 3 1 6 9 8 8 4 6 10 9 14 20 8 6 12 17 14 10 8 10 5 4 6
27 18 39 41 38 34 30 26 21 15 13 9 6 9 14 5 19 19 19 16 11 8 5 3 6 7 6 8 8 11 9 15 16 15 11 11 7 8 13 11 10 8 9 3 2
26 24 16 41 38 35 29 23 17 14 12 8 15 8 17 15 15 20 23 18 13 9 6 5 5 7 8 10 10 11 17 17 14 13 8 11 13 11 13 13 12 4 7 3 5
29 24 20 22 40 37 31 24 9 7 23 13 12 13 8 24 2 17 19 21 16 14 13 15 8 14 19 17 17 17 16 14 14 12 11 12 10 14 17 18 7 7 8 8 5
32 28 22 23 38 42 40 20 29 4 11 27 24 23 29 8 10 14 21 16 18 20 18 13 19 19 17 18 19 18 16 15 16 15 15 14 14 15 17 20 10 9 7 8 9
33 24 27 22 31 44 45 43 23 21 6 19 32 24 15 17 14 19 22 23 20 20 20 22 10 22 19 16 14 13 14 14 17 15 9 7 18 19 22 20 9 6 8 8 7
35 26 26 21 19 35 37 36 32 31 6 14 16 16 28 17 14 28 30 22 16 23 22 21 22 20 20 20 16 16 16 18 17 11 13 11 16 17 13 15 11 11 9 8 7
36 34 29 29 10 20 29 41 26 9 8 13 28 13 19 26 8 25 31 21 21 16 22 17 21 22 17 19 16 15 7 10 9 11 14 16 11 12 12 13 14 14 12 10 12
35 39 33 30 30 17 28 36 11 5 10 9 21 25 28 31 20 18 26 21 18 20 19 22 15 16 20 15 13 9 8 7 10 10 12 15 14 12 15 15 18 16 13 11 10
35 34 36 29 16 31 38 15 9 6 2 9 31 28 32 28 29 14 27 26 19 18 20 19 22 14 9 16 13 12 8 4 4 7 9 11 13 15 12 8 22 19 15 13 11
35 31 36 35 29 36 14 11 15 10 22 10 20 21 30 29 31 29 26 24 27 24 14 18 17 25 16 21 14 17 14 6 8 10 14 15 12 13 4 7 18 18 16 13 12
32 29 30 34 36 43 17 14 13 16 27 9 17 21 24 28 17 26 29 28 26 28 20 19 21 18 22 20 21 18 21 18 14 15 7 7 11 5 6 10 16 16 16 14 14
27 18 24 26 25 28 16 13 19 20 23 23 19 20 23 30 25 26 28 29 29 30 20 11 13 21 26 24 24 23 13 13 9 9 12 11 15 11 13 14 16 17 17 16 14
20 5 9 37 23 13 14 13 14 26 13 31 20 19 22 23 30 29 24 17 32 30 26 14 8 13 18 24 20 15 18 14 11 12 7 6 6 9 13 20 19 18 17 16 15
7 6 15 29 8 5 8 9 15 22 22 9 14 22 20 25 25 26 33 30 24 24 34 28 10 14 21 17 23 22 24 22 9 15 16 8 2 10 6 14 12 15 16 16 16
7 7 13 18 10 6 2 12 20 23 21 18 19 14 16 20 13 26 23 25 15 28 26 24 10 10 8 17 20 24 18 20 17 10 18 11 4 2 16 15 15 14 16 15 16
5 6 4 7 2 5 7 14 15 26 22 19 21 15 17 14 18 17 22 16 8 18 24 25 12 20 16 19 15 22 22 22 20 15 13 18 14 14 8 7 10 13 14 17 16
5 4 6 6 5 4 10 17 22 16 20 23 18 16 13 9 10 6 16 19 15 15 15 21 19 18 17 12 24 22 24 25 25 21 19 15 20 14 9 11 9 10 15 17 18
4 4 6 4 8 17 8 16 24 25 21 28 16 25 22 16 15 16 19 14 16 16 11 7 16 13 16 19 14 24 25 26 23 23 23 22 24 12 14 9 10 15 16 8 10
10 10 1 8 9 6 12 12 23 27 22 26 28 22 23 24 21 22 18 4 3 17 18 17 6 14 11 17 4 10 21 19 20 20 19 19 19 10 12 9 10 11 5 17 12
Wind_Direction
240 239 237 234 228 230 236 239 244 254 268 283 298 309 317 320 314 306 249 177 211 297 295 288 267 254 246 255 235 268 259 256 278 274 107 99 174 122 80 286 106 68 46 85 101
241 239 237 238 233 229 233 237 242 250 260 276 292 306 316 322 315 283 235 225 255 260 337 336 315 311 250 238 226 225 240 310 8 22 81 110 25 30 295 207 220 193 123 141 149
242 241 238 236 237 233 230 234 238 246 256 269 286 302 313 324 299 243 195 203 216 253 294 295 283 270 269 234 231 250 243 28 67 22 13 17 307 273 282 276 308 36 4 330 303
242 240 239 236 236 234 231 229 236 241 249 264 281 299 308 310 272 110 156 186 196 317 292 276 264 255 251 249 229 271 264 300 308 91 317 293 311 286 301 290 332 56 7 292 263
241 239 238 236 234 232 232 228 230 235 243 255 273 299 321 241 256 169 154 213 272 271 272 278 269 252 253 250 246 239 267 233 283 242 256 270 265 268 263 265 180 228 289 260 323
240 240 236 235 233 231 231 228 226 229 236 246 259 282 248 260 260 177 215 237 257 248 243 239 277 353 301 301 265 1 312 292 272 244 239 244 258 242 250 221 184 217 229 257 272
260 237 236 232 231 229 229 226 226 223 229 237 250 267 262 240 211 186 241 237 240 252 232 1 330 283 338 249 277 278 275 268 243 234 228 237 262 243 226 176 221 231 194 202 291
271 241 234 232 229 225 224 223 220 221 220 229 242 263 254 257 244 254 235 223 206 204 339 359 302 283 265 307 256 245 236 261 257 201 157 167 283 304 176 175 221 250 225 201 237
264 277 235 229 226 223 217 215 212 209 214 213 240 226 257 251 226 231 218 223 201 214 235 291 276 252 205 233 258 220 251 231 237 173 159 188 269 338 164 191 220 240 275 252 67
260 265 287 230 222 217 207 197 192 190 201 219 245 238 250 238 222 224 221 219 224 208 236 223 225 227 218 223 218 233 219 240 248 176 193 228 263 259 268 258 239 216 268 261 195
249 252 267 251 219 209 183 149 167 212 206 201 186 216 298 209 230 200 202 200 211 202 211 197 212 210 219 216 239 264 289 292 298 309 292 223 240 267 268 263 234 195 222 220 180
243 242 254 254 220 202 179 194 193 153 202 227 253 214 243 193 212 221 193 187 196 209 214 217 226 226 228 235 235 243 259 261 276 282 273 282 277 274 268 266 214 223 182 234 195
229 234 237 251 235 193 190 201 198 228 252 198 217 227 221 217 229 207 187 201 199 208 209 222 216 219 237 229 238 245 245 258 272 289 268 257 269 261 257 252 150 166 224 187 189
220 223 228 218 206 200 198 197 217 217 256 225 204 231 214 203 243 232 189 193 211 216 213 228 234 245 209 229 209 236 237 245 257 272 262 263 273 294 269 175 161 184 202 170 113
221 220 223 215 163 200 194 192 221 170 227 210 194 170 192 198 150 201 185 210 213 210 204 213 212 227 228 218 215 235 295 304 278 262 277 257 270 253 249 185 183 184 185 146 148
219 216 220 223 207 225 191 186 164 203 205 225 166 186 186 197 220 173 190 211 223 228 228 231 202 219 228 233 223 245 242 262 262 263 250 246 248 261 242 195 180 175 166 152 146
219 212 213 205 209 202 174 156 188 217 168 221 169 175 193 191 200 201 191 193 203 206 221 223 223 197 219 218 221 212 184 219 226 221 252 241 238 232 244 277 178 162 156 159 158
220 215 213 219 215 196 198 170 206 184 192 247 164 184 195 190 200 213 190 196 214 204 196 205 215 215 194 210 196 205 195 193 227 236 259 242 231 239 318 165 145 149 155 159 163
212 210 209 216 205 189 190 203 187 194 200 222 159 182 196 201 187 203 209 203 204 201 213 198 223 180 206 205 217 192 216 228 272 284 281 240 277 106 151 126 139 155 157 167 173
196 202 217 213 214 186 204 206 198 204 187 208 191 199 192 199 195 194 207 202 207 210 213 224 220 225 195 197 217 234 201 213 235 235 244 234 236 247 179 163 163 166 173 176 177
183 197 209 215 225 197 203 201 205 206 184 196 192 199 208 195 203 194 207 205 198 197 212 225 233 210 198 201 193 208 233 224 211 228 230 254 258 238 235 172 181 179 179 178 181
183 201 190 184 215 232 197 176 213 206 218 215 198 225 208 208 207 212 214 204 193 203 200 205 227 229 220 221 208 210 216 220 210 210 231 251 174 103 93 165 185 186 183 184 189
185 190 170 154 214 228 204 203 208 205 197 192 196 232 255 217 208 216 221 210 209 197 213 181 218 222 236 228 218 222 214 213 225 230 234 217 176 27 189 184 185 197 195 192 194
172 172 227 179 179 192 184 188 194 209 204 195 198 220 223 241 215 213 221 221 224 229 210 180 178 211 210 214 179 211 222 209 212 220 231 237 237 225 154 201 175 188 195 190 197
178 188 193 193 179 201 202 171 199 185 209 192 201 206 220 218 223 245 223 216 201 232 185 186 202 201 221 199 193 199 210 209 213 217 222 228 246 244 181 193 224 210 203 201 196
138 162 194 268 187 206 212 199 198 197 183 200 196 199 217 227 213 202 238 206 201 204 189 182 209 220 235 230 204 212 214 219 218 220 228 229 246 232 251 262 199 203 233 234 230
179 200 76 221 207 228 214 229 199 200 206 199 207 199 213 226 225 240 191 169 287 192 188 182 148 201 224 220 98 240 246 205 213 230 240 242 249 242 246 260 274 274 219 202 238